Dewpoint
55 55 53 52 51 48 47 47 48 46 46 46 46 46 46 45 45 46 46 46 46 46 46 46 46 46 45 44 43 43 41 39 35 40 41 41 42 42 44 43 44 44 44
55 55 54 54 52 51 49 48 50 50 47 47 47 47 47 46 46 45 45 46 45 45 46 46 45 46 45 44 43 42 42 41 38 38 40 40 40 40 42 42 42 41 41
56 55 55 55 54 53 52 51 50 50 50 49 48 47 47 47 47 46 46 46 46 45 45 45 45 45 44 44 43 42 42 41 40 39 39 39 36 37 37 39 39 38 38
56 56 55 55 54 54 54 54 51 50 50 51 51 50 49 49 49 48 47 46 46 46 46 46 45 45 44 43 43 42 42 41 40 40 39 39 37 34 36 37 36 34 36
56 56 55 56 55 55 54 54 54 51 50 51 51 51 51 50 49 48 47 47 46 46 46 46 46 46 45 44 43 43 42 41 40 40 39 38 36 33 34 36 37 33 33
54 54 56 56 55 54 54 54 55 54 52 52 52 50 50 50 50 50 50 49 49 47 47 47 46 45 45 45 44 44 44 42 40 40 39 38 38 35 34 34 30 32 32
53 54 55 54 54 54 54 53 53 53 53 52 52 52 51 51 50 50 49 49 49 48 48 48 47 47 47 47 47 47 47 46 44 41 40 39 38 35 32 31 30 31 30
49 51 54 54 54 53 53 53 53 52 52 52 51 51 50 50 50 50 49 49 49 49 49 49 48 47 48 48 48 48 47 47 47 44 42 41 40 37 33 33 31 29 28
47 47 50 53 53 53 53 53 53 52 52 52 52 52 51 51 50 50 49 49 49 49 49 49 49 48 48 48 48 47 47 47 47 47 45 44 42 38 34 32 30 28 26
43 45 46 48 48 48 49 49 50 52 52 52 51 52 52 51 51 50 49 49 48 48 48 48 48 48 48 48 47 47 45 46 45 44 44 44 42 39 35 33 32 29 28
40 43 44 45 45 45 45 45 46 46 46 46 45 45 46 48 49 49 49 48 48 47 46 45 46 47 48 47 47 47 46 45 44 43 42 41 41 39 36 34 33 32 29
35 35 35 38 40 41 41 41 42 42 42 42 42 41 42 43 45 46 48 47 47 46 44 44 45 46 46 46 47 47 47 44 43 41 40 39 38 37 35 33 33 34 32
34 34 34 34 36 36 36 36 36 37 38 39 39 39 40 41 43 44 45 47 47 45 44 44 44 45 45 45 46 46 44 42 41 39 38 38 37 37 35 34 34 33 32
33 34 35 35 34 34 35 36 35 35 34 34 35 35 36 38 40 43 44 45 44 43 43 43 43 43 43 44 44 44 43 42 40 39 38 36 34 34 34 33 33 32 32
31 32 32 33 33 33 34 34 35 36 35 35 35 36 36 38 41 43 43 42 42 41 41 41 40 40 41 41 42 42 41 41 39 37 36 35 34 34 33 33 32 32 31
32 32 32 32 32 32 32 32 34 34 34 35 35 35 36 40 42 42 42 42 41 40 39 38 38 38 38 39 39 38 38 38 37 36 35 34 33 33 32 31 32 31 30
30 31 32 31 31 32 31 31 30 32 33 33 34 35 37 38 39 41 40 39 39 38 37 36 36 37 37 37 37 36 36 36 36 35 35 34 34 33 32 30 30 30 29
28 28 28 28 28 29 29 29 28 28 28 29 32 33 34 35 36 37 37 36 34 34 34 34 34 35 36 36 36 36 36 35 35 35 35 34 33 32 31 30 30 29 29
21 22 23 24 25 25 25 26 26 26 26 26 27 28 30 31 32 33 33 31 31 30 31 31 32 33 33 34 35 35 36 35 35 34 34 33 33 32 31 31 31 31 30
19 21 20 21 20 20 21 22 22 22 23 24 25 26 26 26 26 28 29 29 29 30 30 30 31 32 32 33 33 33 34 34 34 34 33 33 32 32 31 30 30 29 30
14 16 18 17 18 18 18 19 19 19 19 20 23 24 26 24 24 25 26 27 28 28 29 29 30 31 31 32 32 32 32 32 33 33 33 32 32 31 31 31 30 30 30
14 14 15 16 17 17 17 18 18 18 19 19 20 21 23 24 24 24 24 24 25 26 27 29 29 30 30 31 31 31 31 31 31 32 32 32 32 32 31 31 30 29 29
14 13 13 15 15 16 16 17 18 18 18 18 19 19 19 20 21 22 21 21 22 23 24 25 26 26 26 27 29 30 30 30 31 31 31 31 31 31 31 30 30 29 28
14 14 14 14 16 15 16 16 16 17 17 18 18 18 18 19 19 19 19 19 19 19 19 21 24 24 22 21 24 25 26 28 30 31 31 31 30 31 31 31 29 30 29
13 13 14 14 14 14 14 16 15 15 16 16 17 17 17 18 17 18 18 18 19 19 19 18 17 17 16 18 19 19 23 26 27 28 30 30 29 30 30 30 29 30 30
13 13 13 14 14 14 15 15 15 16 15 16 16 15 16 17 17 17 18 19 20 18 17 16 15 13 14 15 16 19 21 22 23 24 25 26 27 28 28 28 28 29 29
Wind_Speed
16 18 17 17 15 16 19 17 17 16 19 20 19 17 16 16 16 17 15 15 20 17 16 20 19 15 17 16 15 13 16 10 13 7 7 8 16 18 13 13 14 13 12
16 16 19 18 15 13 16 18 15 15 15 20 20 20 20 21 19 20 19 16 19 18 20 17 21 15 19 16 18 19 18 15 10 12 10 9 10 15 17 18 14 11 13
14 16 17 18 19 20 16 13 18 18 15 11 14 17 16 16 17 17 17 19 19 21 19 21 22 18 20 17 18 17 15 14 10 8 11 4 2 10 7 5 11 9 11
15 16 17 18 19 20 19 18 18 21 21 17 15 14 16 16 16 17 21 21 21 21 18 19 19 19 23 19 19 18 15 17 14 9 8 7 6 5 9 14 13 5 10
14 14 15 17 19 18 19 18 17 18 20 20 18 17 17 17 17 20 20 22 21 18 17 19 19 20 22 19 17 18 17 17 14 15 9 6 10 10 22 10 12 10 7
12 13 13 13 15 17 17 17 16 17 18 18 21 20 19 19 21 24 19 19 16 21 19 17 16 20 23 24 23 20 20 20 20 17 14 14 16 12 14 15 12 10 10
5 8 10 11 12 12 13 14 16 17 16 18 19 19 21 20 20 22 24 17 19 22 21 18 17 18 22 20 22 22 20 23 24 20 22 20 15 18 17 17 17 17 13
10 6 2 8 9 10 12 15 14 14 17 17 17 17 16 17 22 24 26 21 18 19 19 21 20 21 17 18 17 19 21 19 21 19 19 14 15 19 25 24 21 12 6
10 7 7 9 7 9 10 12 11 12 13 15 15 17 19 17 20 22 21 18 20 19 17 17 17 18 17 22 21 21 20 18 17 22 15 14 17 22 20 17 16 18 9
8 9 8 10 10 10 7 7 2 6 7 6 5 7 10 12 12 18 20 16 16 16 14 13 18 22 20 23 23 18 17 16 14 13 12 14 16 19 24 22 20 21 11
10 13 15 11 12 11 11 10 8 9 11 10 9 8 8 4 1 9 16 12 14 13 12 12 14 19 16 18 22 18 17 13 17 18 15 15 15 17 18 15 19 20 19
14 16 16 15 12 11 15 12 13 12 13 10 9 8 7 5 4 3 5 15 10 12 12 10 11 14 15 16 17 16 15 17 16 14 15 15 16 16 13 13 13 11 8
16 16 16 17 17 15 15 14 14 13 12 11 9 9 8 8 7 5 3 6 10 7 5 7 8 8 9 9 12 12 18 14 16 16 17 15 14 11 13 10 8 7 6
18 17 17 19 18 18 17 16 16 14 13 12 12 11 9 10 10 7 4 6 6 5 5 4 1 3 2 3 3 11 10 11 14 14 14 11 12 12 12 10 9 10 6
17 16 17 17 17 19 20 16 17 18 14 11 10 10 10 11 9 7 5 5 5 5 5 5 5 2 3 5 7 7 8 10 10 10 12 13 13 12 10 10 9 9 9
16 15 15 13 12 13 14 16 23 21 22 22 20 14 9 16 11 10 10 10 9 5 4 5 6 4 3 4 5 6 5 9 9 9 11 12 12 12 11 10 8 10 14
16 14 13 13 12 11 11 10 12 13 21 23 22 22 22 20 21 14 16 16 12 8 8 7 6 4 2 2 5 6 7 6 7 11 11 11 11 11 13 12 12 10 11
17 19 14 13 12 12 12 11 11 12 13 14 18 19 22 23 25 23 16 16 14 14 12 11 8 6 3 2 2 3 2 6 7 9 9 9 10 11 11 12 14 14 13
17 15 14 14 14 15 13 13 12 12 12 12 13 14 16 19 22 22 20 16 14 15 14 14 13 12 12 10 7 3 2 6 7 9 9 10 11 11 11 12 12 13 12
17 20 18 14 13 13 12 12 12 12 12 12 12 12 11 13 16 15 14 14 13 12 12 11 11 10 10 10 10 9 7 3 5 8 8 10 10 10 11 11 12 13 15
14 14 15 13 13 12 11 11 10 10 11 12 12 12 15 12 11 11 11 12 11 11 11 10 9 9 9 9 8 8 7 7 5 1 4 7 8 10 11 11 12 13 12
12 11 11 11 10 11 11 10 10 11 11 11 10 11 14 12 11 10 10 10 9 9 9 8 7 8 9 8 8 7 6 6 5 4 4 4 6 7 8 9 10 11 12
12 11 11 10 10 11 10 10 10 10 10 9 8 8 8 9 7 7 6 5 5 6 9 10 9 9 11 11 10 9 7 6 5 4 4 4 6 7 8 8 9 10 11
11 11 11 11 10 11 10 10 9 10 9 8 8 7 7 6 7 7 5 4 4 5 6 4 5 8 9 10 9 9 8 9 8 7 6 5 6 6 7 9 9 10 11
10 10 10 10 9 9 9 8 9 9 8 8 6 7 8 6 6 7 7 5 3 4 4 6 7 8 9 9 10 11 10 11 9 8 6 5 6 8 9 9 9 9 10
9 9 8 8 8 8 7 7 8 8 9 7 8 9 8 7 7 8 7 7 5 6 6 7 9 10 10 10 11 12 11 11 10 10 9 8 8 8 8 9 10 8 9
Wind_Direction
183 181 184 189 189 177 181 188 184 184 179 181 184 184 185 188 186 188 196 195 204 206 207 211 217 206 216 213 209 201 205 188 215 205 196 191 182 184 182 185 179 177 176
187 180 182 196 197 185 175 182 183 202 210 194 189 194 194 193 188 195 200 201 208 211 214 212 222 207 217 207 209 210 207 202 192 199 186 190 193 191 182 183 180 178 178
182 188 188 179 187 205 213 178 179 185 189 191 186 183 191 200 197 199 206 206 209 217 216 216 224 206 216 211 212 211 205 199 201 177 184 164 142 169 161 158 176 172 186
195 188 188 186 186 193 196 192 187 187 182 182 190 188 186 190 197 206 214 212 212 217 214 215 221 214 219 211 205 209 198 204 204 192 180 168 169 148 164 182 190 179 187
199 194 207 185 180 184 193 192 181 178 183 181 192 193 198 194 212 213 208 207 212 214 212 212 217 215 217 211 200 204 196 204 205 203 194 172 175 166 194 181 187 181 196
208 214 193 193 175 176 182 187 183 182 186 188 201 199 198 206 205 216 216 217 218 223 217 215 214 216 218 212 207 203 188 200 209 207 202 210 201 189 177 180 165 169 206
206 205 187 184 184 186 176 177 190 189 186 194 201 203 210 217 215 215 217 220 217 225 222 222 224 225 211 210 215 217 211 211 214 215 212 209 184 180 175 180 192 193 205
71 50 162 177 183 188 193 198 194 183 190 194 200 203 205 209 210 212 208 209 216 226 224 224 225 225 207 206 211 217 216 216 218 219 220 205 195 181 186 195 194 170 113
77 58 51 104 134 184 195 208 209 198 196 198 198 200 210 224 214 210 206 212 225 223 223 225 223 232 219 210 212 212 213 214 210 206 204 187 186 183 177 151 167 169 190
76 80 71 78 94 91 92 116 143 190 203 199 191 199 209 217 215 222 216 213 220 226 228 221 215 222 216 207 208 211 216 212 183 172 179 181 178 178 175 185 171 183 180
78 77 72 71 79 82 82 75 81 94 102 102 97 79 83 86 181 213 215 210 219 222 219 212 216 221 218 214 206 203 215 175 181 181 178 167 169 178 189 188 180 179 184
69 72 68 70 66 70 80 72 72 77 83 86 93 78 56 41 45 56 218 218 218 218 222 220 220 220 220 223 214 212 190 165 159 164 168 174 176 181 186 178 180 179 184
70 64 64 65 62 56 67 67 67 66 73 71 72 63 45 26 15 6 309 220 195 187 200 214 221 218 221 213 228 214 163 162 158 164 178 180 184 172 140 125 103 110 105
73 67 65 68 63 58 56 55 59 53 63 62 58 50 36 25 16 18 54 110 124 107 100 88 60 116 175 195 174 180 162 170 172 175 176 158 135 149 162 153 170 169 183
72 75 76 73 70 70 65 61 65 59 61 68 57 49 40 22 7 43 85 98 100 102 98 86 72 19 153 140 134 144 144 151 161 161 167 166 162 163 166 164 161 169 190
73 68 72 74 77 83 81 75 62 68 62 61 61 56 28 28 55 63 75 88 89 72 69 85 86 69 65 110 134 134 148 162 168 167 164 162 161 163 171 179 177 189 199
67 63 65 64 62 64 64 70 74 49 51 56 52 53 48 45 49 63 76 66 53 64 76 68 65 63 70 115 173 174 187 183 161 169 166 172 176 178 179 184 190 193 200
62 63 62 62 62 65 68 70 67 65 57 43 41 51 51 50 51 50 53 54 48 41 52 57 57 43 54 101 157 182 173 162 176 186 183 189 189 184 190 197 193 198 207
61 55 51 53 58 62 59 63 63 62 58 50 40 36 39 53 57 54 53 57 50 43 38 40 37 38 37 40 30 349 209 199 209 197 200 197 194 190 205 208 207 206 201
53 60 57 51 51 54 55 63 64 64 61 53 55 54 40 50 51 43 42 49 47 41 34 35 31 37 39 33 30 27 14 310 221 214 216 213 211 208 219 215 211 213 212
46 50 56 52 53 52 53 56 57 59 58 55 46 51 55 59 55 52 46 41 37 35 27 27 24 23 24 27 28 27 28 24 28 333 227 220 214 216 219 218 216 215 214
45 45 47 47 50 58 55 50 53 57 54 54 50 48 55 56 56 59 54 41 27 25 14 10 18 24 20 17 14 13 12 7 2 343 313 290 262 248 229 223 220 217 214
40 42 42 43 47 52 48 42 41 47 46 45 48 48 45 44 42 46 65 49 31 26 15 12 15 18 15 7 3 4 359 352 337 332 310 275 260 251 242 243 235 227 217
32 35 36 33 35 35 38 34 33 33 33 34 38 36 35 33 30 22 24 36 27 33 7 351 19 15 1 354 350 350 343 336 338 333 308 287 276 274 262 241 251 241 229
27 26 30 29 28 24 20 17 19 14 13 7 9 14 1 2 13 4 4 8 8 22 21 14 3 351 344 340 340 337 325 342 340 331 320 316 312 295 263 252 248 249 248
18 17 15 13 11 8 9 16 3 360 355 349 350 334 333 338 356 345 346 342 358 341 333 337 335 334 330 326 324 320 327 319 314 311 304 299 288 283 283 284 283 281 259